Location: Coche
(10.4506°N, 66.9257°W)
Time: 06:31:54
(UTC+00:00)

YAOGAN 1 - Pass Details

Date: 04 July 2022
Orbit: 617 x 619 km, 97.9° (Epoch: 12 August)

Event Time Altitude Azimuth Distance (km) Brightness Sun altitude
Exits shadow 23:58:52 - 181° (S) 2,726 5.6 -15.3°
Reaches altitude 10° 00:00:44 10° 186° (S) 1,978 4.9 -15.7°
Maximum altitude 00:04:51 45° 259° (W) 843 3.6 -16.6°
Drops below altitude 10° 00:08:58 10° 332° (NNW) 1,978 6.0 -17.5°
Sets 00:11:13 0° 339° (NNW) 2,883 6.8 -18.0°
